FW8576 Weather Reports


Display with metric or nautical units.
time (UTC)temp
F
wind
direction
speed
MPH
gust
MPH
rain 1hr
in
rain 24hr
in
rain mn
in
humidity
%
barometer
mb
20260506024350 70 171 3.0 7.0 0.00 0.00 0.00 68 1019.0
20260506023846 71 160 4.0 6.0 0.00 0.00 0.00 67 1018.8
20260506023343 71 222 3.0 5.0 0.00 0.00 0.00 67 1018.8
20260506022840 71 133 3.0 10.0 0.00 0.00 0.00 66 1018.8
20260506022337 71 130 3.0 9.0 0.00 0.00 0.00 65 1018.6
20260506021835 71 177 7.0 12.0 0.00 0.00 0.00 65 1018.6
20260506021332 71 155 3.0 9.0 0.00 0.00 0.00 64 1018.4
20260506020828 71 264 1.0 6.0 0.00 0.00 0.00 63 1018.2
20260506020327 70 182 4.0 6.0 0.00 0.00 0.00 64 1018.3
20260506015824 69 195 0.0 7.0 0.00 0.00 0.00 68 1018.2
20260506015321 69 90 0.0 0.0 0.00 0.00 0.00 68 1018.2
20260506014818 69 90 0.0 0.0 0.00 0.00 0.00 66 1018.3
20260506014315 70 99 0.0 0.0 0.00 0.00 0.00 64 1018.4
20260506013812 70 188 0.0 0.0 0.00 0.00 0.00 62 1018.0
20260506013309 70 188 0.0 0.0 0.00 0.00 0.00 60 1018.0
20260506012805 71 188 0.0 0.0 0.00 0.00 0.00 60 1018.2
20260506012307 71 188 0.0 0.0 0.00 0.00 0.00 58 1018.2
20260506011759 72 188 0.0 0.0 0.00 0.00 0.00 56 1018.5
20260506011256 72 188 0.0 0.0 0.00 0.00 0.00 56 1018.3
20260506010754 73 188 0.0 0.0 0.00 0.00 0.00 54 1018.2
20260506010251 74 188 0.0 0.0 0.00 0.00 0.00 53 1018.1
20260506005748 74 188 0.0 0.0 0.00 0.00 0.00 53 1017.9
20260506005245 74 188 0.0 0.0 0.00 0.00 0.00 52 1018.1
20260506004741 75 188 0.0 0.0 0.00 0.00 0.00 51 1018.0
20260506004239 75 195 0.0 0.0 0.00 0.00 0.00 51 1017.8
20260506003734 75 254 0.0 0.0 0.00 0.00 0.00 50 1017.9
20260506003231 75 180 0.0 0.0 0.00 0.00 0.00 50 1017.6
20260506002727 76 249 0.0 2.0 0.00 0.00 0.00 49 1017.7
20260506002223 77 233 2.0 4.0 0.00 0.00 0.00 49 1017.3
20260506001719 77 187 1.0 2.0 0.00 0.00 0.00 48 1017.4
20260506001217 77 270 1.0 3.0 0.00 0.00 0.00 48 1017.2
20260506000714 77 195 2.0 4.0 0.00 0.00 0.00 48 1017.1
20260506000212 78 221 0.0 3.0 0.00 0.00 0.00 47 1017.2
20260505235709 78 203 3.0 5.0 0.00 0.00 0.00 46 1017.2
20260505235206 78 195 0.0 2.0 0.00 0.00 0.00 46 1017.2
20260505234703 78 215 6.0 6.0 0.00 0.00 0.00 46 1017.3
20260505234200 79 235 3.0 6.0 0.00 0.00 0.00 45 1017.4
20260505233656 79 352 2.0 6.0 0.00 0.00 0.00 45 1017.3
20260505233154 80 221 7.0 9.0 0.00 0.00 0.00 44 1017.2
20260505232651 81 17 0.0 5.0 0.00 0.00 0.00 43 1017.2
20260505232149 81 200 5.0 8.0 0.00 0.00 0.00 43 1017.4
20260505231645 81 209 9.0 10.0 0.00 0.00 0.00 43 1017.0
20260505231145 82 186 3.0 9.0 0.00 0.00 0.00 43 1017.3
20260505230642 82 199 7.0 7.0 0.00 0.00 0.00 42 1017.4
20260505230139 82 235 0.0 11.0 0.00 0.00 0.00 43 1017.6
20260505225635 82 221 6.0 9.0 0.00 0.00 0.00 42 1017.7
20260505225131 82 239 5.0 10.0 0.00 0.00 0.00 41 1017.7
20260505224628 82 230 4.0 5.0 0.00 0.00 0.00 42 1017.8
20260505224125 81 228 2.0 6.0 0.00 0.00 0.00 42 1017.6
20260505223622 81 229 3.0 8.0 0.00 0.00 0.00 43 1017.5
20260505223119 82 230 4.0 9.0 0.00 0.00 0.00 41 1017.5
20260505222615 83 204 4.0 5.0 0.00 0.00 0.00 42 1017.6
20260505222111 83 221 2.0 8.0 0.00 0.00 0.00 42 1017.6
20260505221608 82 161 3.0 8.0 0.00 0.00 0.00 42 1017.6
20260505221104 82 270 3.0 7.0 0.00 0.00 0.00 41 1017.6
20260505220602 83 234 4.0 7.0 0.00 0.00 0.00 40 1017.6
20260505220100 82 191 6.0 13.0 0.00 0.00 0.00 40 1017.6
20260505215558 83 225 3.0 8.0 0.00 0.00 0.00 41 1017.7
20260505215055 81 246 4.0 8.0 0.00 0.00 0.00 42 1017.6
20260505214554 81 222 3.0 5.0 0.00 0.00 0.00 43 1018.1
20260505214050 82 205 4.0 10.0 0.00 0.00 0.00 42 1017.9
20260505213548 82 246 4.0 7.0 0.00 0.00 0.00 42 1017.7
20260505213044 80 247 5.0 8.0 0.00 0.00 0.00 43 1017.6
20260505212540 80 182 7.0 10.0 0.00 0.00 0.00 42 1017.8
20260505212038 81 197 3.0 9.0 0.00 0.00 0.00 42 1017.8
20260505211535 82 253 5.0 12.0 0.00 0.00 0.00 41 1017.6
20260505211031 82 230 10.0 11.0 0.00 0.00 0.00 40 1017.7
20260505210528 82 232 2.0 8.0 0.00 0.00 0.00 42 1017.7
20260505210025 81 204 2.0 4.0 0.00 0.00 0.00 42 1018.0
20260505205523 82 210 4.0 9.0 0.00 0.00 0.00 41 1018.1
20260505205020 82 195 6.0 12.0 0.00 0.00 0.00 39 1017.8
20260505204518 84 246 6.0 11.0 0.00 0.00 0.00 39 1017.9
20260505204015 85 208 6.0 8.0 0.00 0.00 0.00 38 1017.9
20260505203511 81 252 5.0 13.0 0.00 0.00 0.00 40 1018.1
20260505203008 81 225 3.0 9.0 0.00 0.00 0.00 41 1018.2
20260505202504 82 194 10.0 10.0 0.00 0.00 0.00 40 1018.1
20260505202000 82 201 6.0 8.0 0.00 0.00 0.00 40 1018.0
20260505201457 82 237 3.0 10.0 0.00 0.00 0.00 39 1018.2
20260505200955 83 292 11.0 14.0 0.00 0.00 0.00 39 1018.3
20260505200453 83 259 5.0 9.0 0.00 0.00 0.00 37 1018.3
20260505195948 82 265 2.0 13.0 0.00 0.00 0.00 40 1018.3
20260505195446 84 244 3.0 7.0 0.00 0.00 0.00 41 1018.6
20260505194943 84 212 3.0 7.0 0.00 0.00 0.00 38 1018.8
20260505194440 83 242 11.0 15.0 0.00 0.00 0.00 40 1018.8
20260505193940 83 199 5.0 10.0 0.00 0.00 0.00 40 1018.9
20260505193438 82 252 3.0 7.0 0.00 0.00 0.00 38 1018.8
20260505192935 83 212 3.0 10.0 0.00 0.00 0.00 39 1019.1
20260505192434 83 230 6.0 13.0 0.00 0.00 0.00 38 1019.1
20260505191931 84 220 8.0 12.0 0.00 0.00 0.00 39 1019.0
20260505191430 83 161 2.0 6.0 0.00 0.00 0.00 42 1019.1
20260505190926 82 231 2.0 7.0 0.00 0.00 0.00 41 1019.4
20260505190421 82 215 9.0 11.0 0.00 0.00 0.00 40 1019.2
20260505185917 83 220 9.0 9.0 0.00 0.00 0.00 39 1019.4
20260505185414 83 249 4.0 10.0 0.00 0.00 0.00 40 1019.6
20260505184910 82 195 3.0 14.0 0.00 0.00 0.00 41 1019.7
20260505184407 82 242 6.0 11.0 0.00 0.00 0.00 41 1019.7
20260505183904 82 193 6.0 12.0 0.00 0.00 0.00 39 1019.9
20260505183401 83 170 3.0 5.0 0.00 0.00 0.00 41 1020.1
20260505182858 82 63 0.0 9.0 0.00 0.00 0.00 45 1019.9
20260505182355 83 194 3.0 7.0 0.00 0.00 0.00 42 1020.0
20260505181851 80 147 2.0 6.0 0.00 0.00 0.00 43 1020.1
20260505181348 82 206 3.0 11.0 0.00 0.00 0.00 40 1020.3
20260505180845 82 215 4.0 12.0 0.00 0.00 0.00 43 1020.0
20260505180341 81 227 6.0 14.0 0.00 0.00 0.00 42 1020.4
20260505175838 81 259 4.0 8.0 0.00 0.00 0.00 41 1020.2
20260505175334 82 211 4.0 8.0 0.00 0.00 0.00 45 1020.3
20260505174831 80 227 6.0 14.0 0.00 0.00 0.00 45 1020.6
20260505174329 81 205 5.0 12.0 0.00 0.00 0.00 43 1020.6
20260505173824 80 198 7.0 16.0 0.00 0.00 0.00 44 1020.5
20260505173321 81 187 8.0 10.0 0.00 0.00 0.00 42 1020.4
20260505172818 81 215 4.0 10.0 0.00 0.00 0.00 43 1020.4
20260505172316 81 120 3.0 11.0 0.00 0.00 0.00 43 1020.5
20260505171809 82 209 6.0 9.0 0.00 0.00 0.00 45 1020.5
20260505171307 80 270 0.0 9.0 0.00 0.00 0.00 45 1020.5
20260505170803 79 239 10.0 12.0 0.00 0.00 0.00 48 1020.6
20260505170300 79 134 5.0 9.0 0.00 0.00 0.00 48 1020.9
20260505165755 80 228 7.0 11.0 0.00 0.00 0.00 46 1020.5
20260505165252 80 220 4.0 7.0 0.00 0.00 0.00 46 1020.8
20260505164747 80 180 0.0 8.0 0.00 0.00 0.00 49 1020.8
20260505164245 80 159 5.0 7.0 0.00 0.00 0.00 47 1020.9
20260505163743 79 273 3.0 14.0 0.00 0.00 0.00 47 1020.9
20260505163241 79 345 1.0 10.0 0.00 0.00 0.00 48 1021.1
20260505162738 80 201 2.0 8.0 0.00 0.00 0.00 49 1021.2
20260505162235 79 164 3.0 8.0 0.00 0.00 0.00 51 1020.9
20260505161732 79 231 3.0 7.0 0.00 0.00 0.00 52 1021.0
20260505161230 79 246 0.0 8.0 0.00 0.00 0.00 54 1021.2
20260505160727 79 258 4.0 7.0 0.00 0.00 0.00 53 1021.3
20260505160225 78 213 4.0 8.0 0.00 0.00 0.00 53 1021.2
20260505153203 78 118 4.0 5.0 0.00 0.00 0.00 58 1021.5
20260505152700 75 190 6.0 9.0 0.00 0.00 0.00 60 1021.4
20260505152156 76 236 0.0 6.0 0.00 0.00 0.00 60 1021.7
20260505151651 76 201 5.0 8.0 0.00 0.00 0.00 61 1021.9
20260505151149 77 166 6.0 6.0 0.00 0.00 0.00 61 1022.0
20260505150645 74 246 3.0 9.0 0.00 0.00 0.00 62 1021.6
20260505150142 75 207 5.0 7.0 0.00 0.00 0.00 63 1021.7
20260505140611 73 253 0.0 9.0 0.00 0.00 0.00 68 1021.3
20260505140108 72 147 3.0 6.0 0.00 0.00 0.00 69 1021.1
20260505125024 65 270 3.0 6.0 0.00 0.00 0.00 79 1021.3
20260505124521 64 199 2.0 5.0 0.00 0.00 0.00 81 1021.3
20260505124017 63 185 1.0 5.0 0.00 0.00 0.00 81 1021.3
20260505123514 63 210 4.0 8.0 0.00 0.00 0.00 82 1021.1
20260505123010 63 212 2.0 3.0 0.00 0.00 0.00 83 1021.3
20260505122507 62 208 2.0 5.0 0.00 0.00 0.00 83 1021.3
20260505122004 61 218 0.0 6.0 0.00 0.00 0.00 85 1021.3
20260505121501 60 199 2.0 5.0 0.00 0.00 0.00 85 1021.2
20260505120957 60 163 0.0 4.0 0.00 0.00 0.00 87 1021.1
20260505120453 59 228 0.0 4.0 0.00 0.00 0.00 88 1021.3
20260505115952 59 190 0.0 2.0 0.00 0.00 0.00 89 1021.0
20260505115449 58 225 0.0 2.0 0.00 0.00 0.00 90 1020.8
20260505114947 58 240 0.0 2.0 0.00 0.00 0.00 91 1020.5
20260505114443 57 172 0.0 1.0 0.00 0.00 0.00 93 1020.9
20260505113940 56 172 0.0 1.0 0.00 0.00 0.00 94 1020.5
20260505113436 55 188 0.0 2.0 0.00 0.00 0.00 95 1020.8
20260505112932 54 172 0.0 0.0 0.00 0.00 0.00 95 1020.6
20260505112430 53 172 0.0 0.0 0.00 0.00 0.00 95 1020.9
20260505111926 53 165 0.0 0.0 0.00 0.00 0.00 95 1020.9
20260505111421 53 165 0.0 1.0 0.00 0.00 0.00 95 1021.0
20260505110917 53 90 0.0 0.0 0.00 0.00 0.00 95 1020.6
20260505110414 53 90 0.0 0.0 0.00 0.00 0.00 95 1020.6
20260505101845 53 99 0.0 0.0 0.00 0.00 0.00 93 1020.3
20260505101339 54 101 2.0 2.0 0.00 0.00 0.00 93 1020.2
20260505100836 53 90 0.0 0.0 0.00 0.00 0.00 92 1019.9
20260505100333 53 90 0.0 0.0 0.00 0.00 0.00 92 1019.9
20260505095828 53 90 0.0 0.0 0.00 0.00 0.00 92 1020.1
20260505095326 53 90 0.0 1.0 0.00 0.00 0.00 91 1019.8
20260505094822 54 144 0.0 0.0 0.00 0.00 0.00 91 1020.3
20260505094319 53 144 0.0 0.0 0.00 0.00 0.00 90 1020.1
20260505093814 54 144 0.0 0.0 0.00 0.00 0.00 90 1020.3
20260505093312 54 90 0.0 0.0 0.00 0.00 0.00 90 1020.0
20260505092808 54 90 0.0 1.0 0.00 0.00 0.00 89 1020.4
20260505092307 54 99 0.0 0.0 0.00 0.00 0.00 89 1020.2
20260505091804 55 99 0.0 0.0 0.00 0.00 0.00 88 1019.8
20260505091302 55 180 0.0 1.0 0.00 0.00 0.00 88 1020.2
20260505090800 55 160 0.0 1.0 0.00 0.00 0.00 87 1020.3
20260505090258 55 90 0.0 0.0 0.00 0.00 0.00 87 1020.1
20260505085755 55 90 0.0 1.0 0.00 0.00 0.00 86 1020.1
20260505085253 56 99 0.0 0.0 0.00 0.00 0.00 86 1020.3
20260505084750 56 81 0.0 2.0 0.00 0.00 0.00 86 1020.1
20260505084249 56 90 0.0 1.0 0.00 0.00 0.00 85 1020.1
20260505083746 56 166 0.0 1.0 0.00 0.00 0.00 85 1019.9
20260505083242 57 180 0.0 0.0 0.00 0.00 0.00 84 1019.9
20260505082739 57 209 0.0 1.0 0.00 0.00 0.00 84 1019.9
20260505082236 57 174 0.0 2.0 0.00 0.00 0.00 83 1019.8
20260505081732 58 202 0.0 2.0 0.00 0.00 0.00 83 1019.8
20260505081229 58 187 0.0 3.0 0.00 0.00 0.00 83 1019.8
20260505080726 58 209 0.0 2.0 0.00 0.00 0.00 82 1019.8
20260505080221 58 160 0.0 2.0 0.00 0.00 0.00 82 1019.9
20260505075717 59 180 0.0 2.0 0.00 0.00 0.00 81 1019.9
20260505075215 59 237 3.0 5.0 0.00 0.00 0.00 80 1019.7
20260505074712 59 209 0.0 5.0 0.00 0.00 0.00 80 1019.5
20260505074209 59 194 3.0 3.0 0.00 0.00 0.00 80 1019.8
20260505073707 59 241 3.0 5.0 0.00 0.00 0.00 80 1019.7
20260505073204 58 203 0.0 2.0 0.00 0.00 0.00 80 1019.7
20260505072700 59 209 1.0 2.0 0.00 0.00 0.00 80 1019.6
20260505072156 59 202 0.0 3.0 0.00 0.00 0.00 79 1019.6
20260505071652 59 157 0.0 4.0 0.00 0.00 0.00 79 1019.6
20260505071150 59 201 2.0 5.0 0.00 0.00 0.00 78 1019.5
20260505070647 59 200 3.0 4.0 0.00 0.00 0.00 78 1019.6
20260505070143 60 215 1.0 5.0 0.00 0.00 0.00 78 1019.6
20260505065639 59 209 2.0 4.0 0.00 0.00 0.00 78 1019.6
20260505065136 59 180 1.0 2.0 0.00 0.00 0.00 78 1019.8
20260505064633 60 209 3.0 4.0 0.00 0.00 0.00 78 1019.7
20260505064131 59 240 1.0 3.0 0.00 0.00 0.00 77 1019.9
20260505063628 59 189 3.0 3.0 0.00 0.00 0.00 77 1020.0
20260505063124 60 177 3.0 3.0 0.00 0.00 0.00 77 1019.7
20260505062621 60 185 0.0 4.0 0.00 0.00 0.00 76 1019.9
20260505062118 60 176 2.0 3.0 0.00 0.00 0.00 76 1019.8
20260505061615 60 197 2.0 5.0 0.00 0.00 0.00 76 1020.0
20260505061113 60 194 0.0 2.0 0.00 0.00 0.00 75 1020.1
20260505060611 60 166 0.0 3.0 0.00 0.00 0.00 75 1019.9
20260505060107 60 227 3.0 3.0 0.00 0.00 0.00 75 1020.1
20260505055602 60 90 0.0 2.0 0.00 0.00 0.00 75 1020.0
20260505055059 60 180 0.0 5.0 0.00 0.00 0.00 74 1020.1
20260505054556 61 180 3.0 3.0 0.00 0.00 0.00 74 1020.0
20260505054055 61 221 0.0 3.0 0.00 0.00 0.00 73 1019.9
20260505053551 61 229 3.0 4.0 0.00 0.00 0.00 73 1020.1
20260505053048 61 229 0.0 3.0 0.00 0.00 0.00 73 1020.0
20260505052545 61 194 4.0 4.0 0.00 0.00 0.00 73 1020.2
20260505052043 61 231 2.0 4.0 0.00 0.00 0.00 73 1020.1
20260505051539 61 185 0.0 5.0 0.00 0.00 0.00 72 1020.2
20260505051038 61 199 3.0 4.0 0.00 0.00 0.00 72 1020.1
20260505050535 62 257 0.0 5.0 0.00 0.00 0.00 72 1020.2
20260505041503 62 180 0.0 4.0 0.00 0.00 0.00 71 1020.1
20260505041001 62 195 2.0 3.0 0.00 0.00 0.00 72 1020.3
20260505040457 62 180 1.0 4.0 0.00 0.00 0.00 71 1020.4
20260505035954 62 162 2.0 4.0 0.00 0.00 0.00 71 1020.2
20260505035450 62 180 0.0 2.0 0.00 0.00 0.00 71 1020.3
20260505034948 62 195 0.0 4.0 0.00 0.00 0.00 71 1020.2
20260505034444 62 187 1.0 5.0 0.00 0.00 0.00 70 1020.2
20260505033941 63 163 3.0 3.0 0.00 0.00 0.00 70 1020.3
20260505033438 62 195 1.0 4.0 0.00 0.00 0.00 70 1020.3
20260505032936 62 203 0.0 3.0 0.00 0.00 0.00 69 1020.1
20260505032433 62 241 2.0 2.0 0.00 0.00 0.00 69 1020.2
20260505031929 63 157 0.0 2.0 0.00 0.00 0.00 68 1020.3
20260505031427 63 251 0.0 4.0 0.00 0.00 0.00 67 1020.5
20260505030923 63 220 2.0 2.0 0.00 0.00 0.00 67 1020.3
20260505030419 63 279 0.0 2.0 0.00 0.00 0.00 67 1020.3
20260505025915 63 187 1.0 1.0 0.00 0.00 0.00 67 1020.3
20260505025412 63 216 2.0 3.0 0.00 0.00 0.00 68 1020.0
20260505024911 62 254 2.0 3.0 0.00 0.00 0.00 70 1020.4